Location: Melque
(41.0517°N, 4.4694°W)
Time: 16:37:07
(UTC+00:00)

ARIANE 5 R/B - Pass Details

Date: 11 December 2025
Orbit: 747 x 792 km, 98.8° (Epoch: 16 January)

Event Time Altitude Azimuth Distance (km) Brightness Sun altitude
Rises 17:15:59 0° 143° (SE) 3,203 5.6 -5.2°
Reaches altitude 10° 17:18:23 10° 136° (SE) 2,288 4.8 -5.6°
Maximum altitude 17:23:02 39° 69° (ENE) 1,142 3.0 -6.4°
Drops below altitude 10° 17:27:46 10° 2° (N) 2,330 4.8 -7.2°
Sets 17:30:13 0° 354° (N) 3,269 5.6 -7.7°
